Flag for Australia Weather past 2 weeks in Hobart, Tasmania, Australia

Now
43 °F

Passing clouds.


Feels Like: 38 °F
Forecast: 39 / 58 °F
Wind: 8 mph from Northwest

Location: Hobart Airport

Current Time: Aug 20, 2014 at 11:43:24 PM

Latest Report: Aug 20, 2014 at 11:00 PM


Visibility: N/A

Pressure: 30.42 "Hg

Humidity: 87%

Dew point: 39 °F

Location of HobartLocation

Historic Weather in Hobart — Graph

°F

Hobart temperature yesterday

Maximum temperature yesterday: 57 °F (at 2:00 PM)
Minimum temperature yesterday: 39 °F (at 12:00 AM)
Average temperature yesterday: 46 °F

Past Weeks' High & Low Weather Summary

 TemperatureHumidityPressure
High61 °F (Aug 9, 2:00 PM)100% (Aug 15, 1:00 AM)30.57 "Hg (Aug 15, 1:00 AM)
Low36 °F (Aug 13, 6:30 AM)36% (Aug 6, 3:00 PM)29.80 "Hg (Aug 6, 5:00 PM)
Average47 °F69%30.24 "Hg
* Reported Aug 5 10:00 PM — Aug 20 10:30 PM, Hobart, Weather by CustomWeather, © 2014

Note: Actual official high and low records may vary slightly from our data, if they occured in-between our weather recording intervals... More about our weather records

Advertising

Hobart weather history for previous 24 hours

 ConditionsComfort  
Time TempWeatherWind HumidityBarometerVisibility
10:30 PM
Aug 20
43 °FPassing clouds.8 mph87%30.42 "HgN/A
10:00 PM43 °FPassing clouds.6 mph93%30.42 "HgN/A
9:30 PM43 °FPassing clouds.6 mph87%30.42 "HgN/A
9:00 PM43 °FPassing clouds.2 mph93%30.42 "HgN/A
8:30 PM43 °FPassing clouds.1 mph93%30.39 "HgN/A
8:00 PM43 °FPassing clouds.No wind87%30.39 "HgN/A
7:30 PM45 °FPassing clouds.No wind93%30.39 "HgN/A
7:00 PM46 °FPassing clouds.2 mph87%30.39 "HgN/A
6:30 PM48 °FPassing clouds.5 mph87%30.36 "HgN/A
6:00 PM50 °FPassing clouds.8 mph82%30.36 "HgN/A
5:30 PM50 °FPassing clouds.9 mph82%30.33 "HgN/A
5:00 PM52 °FPassing clouds.9 mph67%30.33 "HgN/A
4:30 PM54 °FPassing clouds.10 mph58%30.33 "HgN/A
4:00 PM54 °FPassing clouds.10 mph58%30.33 "HgN/A
3:30 PM54 °FPassing clouds.9 mph58%30.30 "HgN/A
3:00 PM54 °FScattered clouds.10 mph54%30.30 "HgN/A
2:30 PM55 °FScattered clouds.6 mph55%30.30 "HgN/A
2:00 PM55 °FScattered clouds.3 mph55%30.30 "HgN/A
1:30 PM55 °FScattered clouds.6 mph51%30.30 "HgN/A
1:00 PM55 °FPassing clouds.6 mph51%30.30 "HgN/A
12:30 PM55 °FPassing clouds.6 mph51%30.30 "HgN/A
12:00 PM55 °FPassing clouds.7 mph55%30.30 "HgN/A
11:30 AM54 °FPassing clouds.8 mph58%30.33 "HgN/A
11:00 AM52 °FPassing clouds.9 mph62%30.33 "HgN/A
10:30 AM50 °FPassing clouds.10 mph67%30.33 "HgN/A
10:00 AM50 °FPassing clouds.10 mph67%30.30 "HgN/A
9:30 AM46 °FPassing clouds.10 mph76%30.30 "HgN/A
9:00 AM45 °FPassing clouds.8 mph76%30.30 "HgN/A
8:30 AM43 °FPassing clouds.8 mph76%30.30 "HgN/A
8:00 AM41 °FPassing clouds.9 mph81%30.30 "HgN/A
7:30 AM39 °FPassing clouds.10 mph87%30.27 "HgN/A
7:00 AM39 °FPassing clouds.10 mph87%30.27 "HgN/A
6:30 AM39 °FPassing clouds.10 mph87%30.27 "HgN/A
6:00 AM39 °FPassing clouds.10 mph87%30.24 "HgN/A
5:30 AM39 °FPassing clouds.9 mph87%30.24 "HgN/A
5:00 AM39 °FPassing clouds.10 mph87%30.24 "HgN/A
4:30 AM39 °FPassing clouds.9 mph87%30.24 "HgN/A
4:00 AM39 °FPassing clouds.9 mph87%30.24 "HgN/A
3:30 AM39 °FPassing clouds.8 mph87%30.24 "HgN/A
3:00 AM39 °FPassing clouds.9 mph87%30.24 "HgN/A
2:30 AM41 °FPassing clouds.9 mph81%30.24 "HgN/A
2:00 AM41 °FPassing clouds.9 mph81%30.24 "HgN/A
1:30 AM41 °FPassing clouds.6 mph81%30.24 "HgN/A
1:00 AM41 °FPassing clouds.1 mph81%30.24 "HgN/A
12:30 AM41 °FPassing clouds.6 mph81%30.24 "HgN/A
12:00 AM43 °FPassing clouds.6 mph76%30.24 "HgN/A
11:30 PM
Aug 19
43 °FPassing clouds.7 mph76%30.24 "HgN/A
11:00 PM45 °FPassing clouds.7 mph76%30.24 "HgN/A
Weather by CustomWeather, © 2014

See weather overviewHow to use our weather pages